www.pogodaiklimat.ru

Погода и климат >> Архив погоды >> Россия >> Ямало-Ненецкий АО >> Гыда


ПОГОДА в Гыде

  • Прогноз погоды в Гыде
  • Монитор погоды в Гыде

АРХИВ ПОГОДЫ в Гыде

Время (UTC), дата Ветер
(напр.,м/с)
 
Видим.   Явления Облачность Т
(С)
Тd
(С)
f
(%)
Тe
(С)
Тes
(С)
Комфортность P
(гПа)
Po
(гПа)
Тmin
(С)
Tmax
(С)
R
(мм)
R24
(мм)
S
(см)
18 14.07 В 5 н/о н/о +9.7 +7.8 88 +6 +6 1013.0 1012.0 +12.6 5
21 14.07 ЮВ 4 н/о н/о +11.7 +8.7 82 +10 +10 1010.3 1009.3
00 15.07 Ю 3 н/о н/о +11.0 +8.9 87 +9 +9 1010.3 1009.3
03 15.07 Ю 3 н/о н/о +13.8 +11.1 84 +13 +13 1009.0 1008.0 +9.7 6
06 15.07 Ю 1 н/о н/о +16.5 +13.8 84 +17 +17 1008.9 1008.0 +9.7 1
09 15.07 ЮВ 1 н/о н/о +16.0 +14.5 91 +17 +17 1010.3 1009.3
12 15.07 СВ 2 н/о н/о +18.0 +14.9 82 +19 +19 1008.9 1008.0
15 15.07 СВ 2 н/о н/о +18.1 +14.8 81 +19 +19 1008.9 1008.0 3
18 15.07 СЗ 4
{10}
н/о н/о +11.7 +10.3 91 +9 +9 1011.7 1010.7 +19.7 3
21 15.07 З 4 н/о н/о +11.6 +10.3 92 +9 +9 1013.0 1012.0
00 16.07 З 5 н/о н/о +11.1 +9.8 92 +8 +8 1014.3 1013.3
03 16.07 З 6 н/о н/о +10.0 +8.8 92 +6 +6 1015.7 1014.7 +10.0
06 16.07 СЗ 6 н/о н/о +9.3 +7.4 88 +6 +6 1017.0 1016.0 +9.3
09 16.07 СЗ 7 н/о н/о +10.0 +8.1 88 +6 +6 1018.3 1017.3
12 16.07 С 6 н/о н/о +11.1 +8.3 83 +8 +8 1019.7 1018.7
15 16.07 С 7 н/о н/о +10.8 +8.0 83 +7 +7 1021.0 1020.0
18 16.07 СВ 4 н/о н/о +9.1 +7.9 92 +6 +6 1021.0 1020.0 +11.4
21 16.07 СВ 4 н/о н/о +11.1 +9.5 90 +9 +9 1021.0 1020.0
00 17.07 В 5 н/о н/о +11.9 +10.5 91 +9 +9 1022.3 1021.3
03 17.07 В 6-11
{11}
н/о н/о +13.8 +10.8 82 +12 +12 1022.3 1021.3 +9.1
06 17.07 В 8-11
{12}
н/о н/о +16.2 +9.6 65 +15 +15 1022.3 1021.3 +9.1
09 17.07 В 8-11
{13}
н/о н/о +18.9 +10.8 59 +19 +19 1020.6 1019.5
12 17.07 В 6
{13}
н/о н/о +19.2 +10.5 57 +20 +20 1021.0 1020.0
15 17.07 В 5
{14}
н/о н/о +17.2 +10.8 66 +17 +17 1021.0 1020.0
18 17.07 В 5
{10}
н/о н/о +13.3 +9.5 78 +11 +11 1021.0 1020.0 +19.5
21 17.07 В 5 н/о н/о +11.8 +8.6 81 +9 +9 1019.7 1018.7
00 18.07 В 6
{11}
н/о н/о +13.5 +9.4 76 +11 +11 1018.3 1017.3
03 18.07 В 5-10
{10}
н/о н/о +17.0 +11.0 68 +16 +16 1018.3 1017.3 +11.6
06 18.07 В 6-10
{11}
н/о н/о +21.3 +12.2 56 +23 +23 комфорт 1016.9 1016.0 +11.6
09 18.07 В 7-10
{13}
н/о н/о +24.2 +13.1 50 +26 +26 жарко 1016.9 1016.0
12 18.07 В 7
{12}
н/о н/о +24.3 +13.2 50 +26 +26 жарко 1016.9 1016.0
15 18.07 В 4
{10}
н/о н/о +21.7 +13.3 59 +24 +24 комфорт 1016.9 1016.0
18 18.07 В 4 н/о н/о +15.3 +12.2 82 +14 +14 1017.0 1016.0 +24.4
21 18.07 В 2 н/о н/о +14.0 +11.2 83 +13 +13 1017.0 1016.0
00 19.07 В 4 н/о н/о +17.5 +12.6 73 +17 +17 1017.0 1016.0
03 19.07 В 3 н/о н/о +22.7 +13.7 57 +26 +26 жарко 1016.9 1016.0 +13.7
06 19.07 ЮВ 4 н/о н/о +25.7 +15.1 52 +29 +29 душно 1015.6 1014.7 +13.7
09 19.07 ЮВ 4 н/о н/о +27.8 +13.3 41 +30 +30 жарко 1015.6 1014.7
12 19.07 Ю 3 н/о н/о +28.1 +12.8 39 +30 +30 жарко 1015.6 1014.7
15 19.07 ЮВ 2 н/о н/о +25.0 +15.9 57 +28 +28 жарко 1015.6 1014.7
18 19.07 ЮВ 5 н/о н/о +20.9 +13.6 63 +24 +24 комфорт 1015.6 1014.7 +28.2
21 19.07 ЮВ 4 н/о н/о +18.1 +12.8 71 +18 +18 1015.6 1014.7
00 20.07 ЮВ 3 н/о н/о +19.5 +12.7 65 +21 +21 комфорт 1015.6 1014.7
03 20.07 ЮВ 3 н/о н/о +24.2 +13.7 52 +26 +26 жарко 1014.2 1013.3 +17.7
06 20.07 Ю 7-12
{12}
н/о н/о +26.8 +13.5 44 +29 +29 жарко 1012.9 1012.0 +17.7
09 20.07 Ю 4
{12}
н/о н/о +26.4 +14.5 48 +29 +29 жарко 1012.9 1012.0
12 20.07 Ю 5
{11}
н/о н/о +27.1 +16.1 51 +30 +30 душно 1012.9 1012.0
15 20.07 Ю 4 н/о н/о +23.5 +17.9 71 +28 1011.6 1010.7
18 20.07 Ю 2 н/о н/о +19.9 +17.5 86 +23 1011.6 1010.7 +28.6
21 20.07 Ю 2 н/о н/о +19.2 +17.3 89 +22 1011.6 1010.7
00 21.07 ЮЗ 3 н/о н/о +18.6 +16.4 87 +20 1012.9 1012.0
03 21.07 ЮЗ 4 н/о н/о +21.5 +15.8 70 +25 1012.9 1012.0 +18.3
06 21.07 ЮЗ 3 н/о н/о +22.6 +14.7 61 +26 1012.9 1012.0 +18.3
09 21.07 ЮЗ 6 н/о н/о +23.7 +14.9 58 +27 1012.9 1012.0
12 21.07 З 6 н/о н/о +23.3 +15.1 60 +27 1011.6 1010.7

 

Местоположение метеостанции Гыда (Ямало-Ненецкий АО, Россия): широта 70.88 долгота 78.47 высота над уровнем моря 8 м.

В архиве по умолчанию представлена погода в Гыде за последнюю неделю. Архивные данные за месяц целиком и за предыдущие месяцы, начиная с января 2011 года, Вы можете получить, выбрав интересующий диапазон дат из раскрывающегося списка и нажав кнопку "Ввод!".


*Определитесь, кто Вы:
робот инопланетянин человек

Внимание! Время в таблицах - всемирное. Для получения местного времени необходимо прибавить поправку, которая равна 5 ч.

Смотрите также архив погоды в соседних городах и на ближайших метеорологических станциях:

Погода в Сопочной Карге (Красноярский край, Россия) (186 км)
Погода в Карауле (Красноярский край, Россия) (196 км)
Погода в Антипаюте (Ямало-Ненецкий АО, Россия) (209 км)
Погода в Сеяхе (Ямало-Ненецкий АО, Россия) (234 км)
Погода в Тамбее (Ямало-Ненецкий АО, Россия) (248 км)
Погода на Острове Диксон (Красноярский край, Россия) (301 км)
Погода в Тазовском (Ямало-Ненецкий АО, Россия) (379 км)
Погода в Потапово (Красноярский край, Россия) (387 км)
Погода в Имени Попова (Ямало-Ненецкий АО, Россия) (396 км)
Погода в Норильске (Красноярский край, Россия) (409 км)

Пояснения к столбцам:

Ветер - указаны скорость ветра в м/с - средняя за 10 мин, порывы в срок и между сроками (в фигурных скобках) и направление, откуда дует ветер: С - северный, СВ - северо-восточный, В - восточный, ЮВ - юго-восточный, Ю - южный, ЮЗ - юго-западный, З - западный, СЗ - северо-западный.
Видимость - горизонтальная дальность видимости в метрах или километрах. При видимости от 1 до 10 км при отсутствии осадков обычно наблюдается дымка, при ухудшении видимости до 1 км и менее - туман. В сухую погоду видимость может ухудшаться дымом, пылью или мглою.
Явления - указаны атмосферные явления, наблюдавшиеся в срок или в последний час перед сроком; фигурными скобками обозначены явления, наблюдавшиеся между сроками (за 1-3 часа до срока); квадратными скобками обозначены град или гололедные отложения с указанием их диаметра в мм.
Облачность - указаны через наклонную черту общая и нижняя облачность в баллах и высота нижней границы облаков в метрах; квадратными скобками обозначены формы облаков: Ci - перистые, Cs - перисто-слоистые, Cc - перисто-кучевые, Ac - высококучевые, As - высокослоистые, Sc - слоисто-кучевые, Ns - слоисто-дождевые, Cu - кучевые, Cb - кучево-дождевые. Подробнее классификацию облаков см. в Атласе облаков (PDF).
T - Температура воздуха - температура, измеренная на высоте 2 м над землей.
Td - Температура точки росы - температура, при понижении до которой содержащийся в воздухе водяной пар достигнет насыщения.
f - Относительная влажность воздуха - влажноcть воздуха, измеренная на высоте 2 м над землей.
Te - Эффективная температура - температура, которую ощущает одетый по сезону человек в тени. Характеристика душности погоды. При расчете учитывается влияние влажности воздуха и скорости ветра на теплоощущения человека.
Tes - Эффективная температура на солнце - температура, которую ощущает человек, с поправкой на солнечный нагрев. Характеристика знойности погоды. Зависит от высоты солнца над горизонтом, облачности и скорости ветра. Ночью, в пасмурную погоду, а также при ветре 12 м/с и более поправка равна нулю.
P - Атмосферное давление - приведенное к уровню моря атмосферное давление.
Po - Атмосферное давление - измеренное на уровне метеостанции атмосферное давление.
Tmin - Минимальная температура - минимум температуры воздуха на высоте 2 м над землей.
Tmax - Максимальная температура - максимум температуры воздуха на высоте 2 м над землей.
R - Количество осадков - Количество выпавших осадков за период времени, мм. При наведении курсора мыши на число - период времени, за который выпало указанное количество осадков.
R24 - Количество осадков - Количество выпавших осадков за 24 часа, мм.
S - Снежный покров - Высота снежного покрова, см. При наведении курсора мыши на число - состояние снежного покрова и степень покрытия местности в баллах.